CST,Max TemperatureF,Mean TemperatureF,Min TemperatureF,Max Dew PointF,MeanDew PointF,Min DewpointF,Max Humidity, Mean Humidity, Min Humidity, Max Sea Level PressureIn, Mean Sea Level PressureIn, Min Sea Level PressureIn, Max VisibilityMiles, Mean VisibilityMiles, Min VisibilityMiles, Max Wind SpeedMPH, Mean Wind SpeedMPH, Max Gust SpeedMPH,PrecipitationIn, CloudCover, Events, WindDirDegrees
2013-12-1,40,33,25,29,28,25,92,78,64,30.17,30.09,29.98,9,7,5,12,6,14,0.00,3,,36
2013-12-2,37,32,27,34,31,25,100,88,76,29.96,29.78,29.66,8,4,2,18,10,24,0.03,7,,133
2013-12-3,40,38,35,40,37,34,100,96,92,29.70,29.66,29.60,2,1,0,14,7,20,0.04,8,Fog-Rain,100
2013-12-4,48,37,25,48,40,23,100,96,92,29.76,29.58,29.44,10,3,0,28,12,33,0.04,8,Fog-Rain,163
2013-12-5,25,18,11,23,10,6,92,80,67,30.35,30.10,29.76,10,10,10,29,17,37,T,4,,284
2013-12-6,15,10,5,5,2,-1,88,71,53,30.64,30.49,30.35,10,10,10,16,10,20,0.00,0,,324
2013-12-7,14,6,-2,1,-2,-6,87,67,46,30.77,30.68,30.60,10,10,10,13,6,15,0.00,1,,341
2013-12-8,18,14,10,16,11,0,92,77,61,30.58,30.19,29.97,10,4,0,15,7,17,0.11,8,Fog-Snow,55
2013-12-9,17,3,-11,16,2,-13,96,84,71,30.27,30.12,29.94,10,7,2,23,12,28,0.01,3,Snow,257
2013-12-10,15,4,-8,11,5,-9,92,80,67,30.29,30.10,29.89,10,5,0,28,15,33,0.02,6,Snow,246
2013-12-11,15,2,-11,12,1,-14,100,77,54,30.61,30.43,30.21,10,7,2,23,10,28,0.06,5,Snow,285
2013-12-12,16,5,-6,10,2,-9,91,79,66,30.55,30.36,30.22,10,10,10,18,10,22,0.00,2,,220
2013-12-13,26,16,5,20,14,6,92,82,71,30.19,30.14,30.07,10,9,5,21,9,26,0.00,3,,65
2013-12-14,23,18,12,18,16,7,92,86,80,30.12,30.06,30.00,10,6,2,24,13,30,0.03,8,Snow,7
2013-12-15,12,8,3,7,2,-2,83,75,66,30.16,30.11,30.00,10,8,2,21,9,24,0.03,7,Snow,322
2013-12-16,19,13,7,18,8,0,100,83,66,30.15,30.06,29.95,10,5,1,16,7,20,0.04,8,Snow,177
2013-12-17,32,22,12,26,17,11,100,82,63,30.17,30.07,30.00,10,8,4,31,15,40,0.00,3,,269
2013-12-18,35,22,9,24,17,8,92,73,53,30.17,29.93,29.75,10,10,10,25,11,32,0.00,1,,199
2013-12-19,32,27,21,29,26,21,100,86,72,29.95,29.85,29.79,10,5,2,21,12,25,0.02,5,Rain,47
2013-12-20,29,25,21,29,23,20,100,96,92,29.88,29.83,29.78,10,5,1,25,13,31,0.03,8,Rain,29
2013-12-21,26,24,22,27,24,21,100,96,92,29.89,29.83,29.71,6,3,1,21,10,26,0.02,8,Snow,20
2013-12-22,26,20,13,26,21,11,100,92,84,30.21,29.88,29.68,10,4,0,21,12,26,0.48,8,Fog-Snow,346
2013-12-23,13,2,-10,8,-8,-14,92,82,71,30.55,30.40,30.19,10,10,3,20,11,24,T,2,Snow,273
2013-12-24,10,-5,-21,8,-5,-23,92,85,78,30.61,30.43,30.22,10,8,1,17,7,20,0.05,5,Snow,172
2013-12-25,22,16,10,21,17,8,100,87,73,30.27,30.15,30.08,10,4,0,20,12,26,0.06,7,Fog-Snow,235
2013-12-26,27,19,11,23,18,9,92,87,81,30.23,30.20,30.14,10,10,9,16,7,19,T,8,Rain-Snow,223
2013-12-27,35,22,8,27,19,8,100,85,70,30.28,30.18,30.08,10,4,0,20,10,23,0.00,1,Fog,211
2013-12-28,41,32,23,31,28,22,92,81,70,30.08,29.93,29.78,10,10,6,22,12,24,0.00,0,,203
2013-12-29,34,14,-7,30,11,-15,100,82,64,30.32,30.04,29.77,10,9,4,30,18,37,T,6,Snow,331
2013-12-30,3,-6,-15,-1,-7,-18,95,76,57,30.37,30.25,30.15,10,6,0,14,3,15,0.05,6,Fog-Snow,187
2013-12-31,6,-2,-11,3,0,-11,96,88,80,30.38,30.30,30.19,10,5,0,20,6,23,0.12,7,Snow,21